Regional Weather Roundup
Issued by NWS

Home | Current Version | Previous Version | Text Only | Print | Product List | Glossary On
Versions: 1 2 3 4 5 6 7 8 9 10 11 12 13 14 15 16 17 18 19 20 21 22 23 24 25 26 27 28 29 30 31 32 33 34 35 36 37 38 39 40 41 42 43 44 45 46 47 48 49 50
000
ASUS43 KMKX 261821
RWRWI

WISCONSIN REGIONAL WEATHER ROUNDUP
NATIONAL WEATHER SERVICE MILWAUKEE/SULLIVAN WI
1200 PM CST FRI DEC 26 2014

NOTE: "FAIR" INDICATES FEW OR NO CLOUDS BELOW 12,000 FEET WITH NO
SIGNIFICANT WEATHER AND/OR OBSTRUCTIONS TO VISIBILITY.

WIZ001-002-006>008-014>016-023>028-261900-
NORTHWEST WISCONSIN

CITY           SKY/WX    TMP DP  RH WIND       PRES   REMARKS
SUPERIOR ARPT  CLOUDY    31  26  82 N5        30.05F WCI  26
6HR MIN TEMP:  30; 6HR MAX TEMP:  31;

ASHLAND        CLOUDY    31  28  89 N6        30.04S WCI  25
6HR MIN TEMP:  30; 6HR MAX TEMP:  31; 6HR PCP: TRACE;

HAYWARD        CLOUDY    30  26  85 NE9       30.00F WCI  22
6HR MIN TEMP:  29; 6HR MAX TEMP:  30; 6HR PCP: TRACE;

SIREN          CLOUDY    30  27  89 N7        30.03S WCI  23
6HR MIN TEMP:  29; 6HR MAX TEMP:  31;

CUMBERLAND     CLOUDY    30  28  93 N9        29.98F WCI  22
RICE LAKE      CLOUDY    32  28  86 N8        30.00F WCI  25
6HR MIN TEMP:  31; 6HR MAX TEMP:  32;

CHETEK         CLOUDY    32  30  92 NW3       29.98F
6HR MIN TEMP:  31; 6HR MAX TEMP:  32;

LADYSMITH      CLOUDY    32  30  91 N10       29.98S WCI  24
6HR MIN TEMP:  32; 6HR MAX TEMP:  32;

EAU CLAIRE     CLOUDY    36  30  79 NE12      29.95F WCI  28
6HR MIN TEMP:  31; 6HR MAX TEMP:  36;

MENOMONIE      CLOUDY    34  31  88 N8        29.97F WCI  27
6HR MIN TEMP:  32; 6HR MAX TEMP:  34;

NEW RICHMOND   CLOUDY    32  30  93 N12       30.00F WCI  23
6HR MIN TEMP:  31; 6HR MAX TEMP:  32;

OSCEOLA        CLOUDY    31  31  99 N8        30.04S WCI  24
6HR MIN TEMP:  31; 6HR MAX TEMP:  32;

$$

WIZ003>005-009-010-017-018-261900-
NORTH CENTRAL WISCONSIN

CITY           SKY/WX    TMP DP  RH WIND       PRES   REMARKS
MANITOWISH WTR LGT SNOW  29  29 100 N3        29.96S
6HR MIN TEMP:  28; 6HR MAX TEMP:  29;

ARBOR VITAE    LGT SNOW  32  30  92 CALM      29.95S
6HR MIN TEMP:  32; 6HR MAX TEMP:  32;

WOODRUFF       LGT SNOW  32  30  92 CALM      29.95S
6HR MIN TEMP:  32; 6HR MAX TEMP:  32;

RHINELANDER    CLOUDY    30  29  96 N6        29.94S FOG     WCI  24
6HR MIN TEMP:  29; 6HR MAX TEMP:  30;

EAGLE RIVER    LGT SNOW  30  29  99 N5        29.95R WCI  25
6HR MIN TEMP:  29; 6HR MAX TEMP:  30;

LAND O LAKES   CLOUDY    30  29  94 CALM      29.96R FOG
6HR MIN TEMP:  28; 6HR MAX TEMP:  30;

PHILLIPS       CLOUDY    30  28  93 N7        29.96S WCI  23
6HR MIN TEMP:  29; 6HR MAX TEMP:  30;

TOMAHAWK       CLOUDY    31  30  94 CALM      29.95R FOG
6HR MIN TEMP:  29; 6HR MAX TEMP:  31;

MEDFORD        CLOUDY    32  31  94 N6        29.93S FOG     WCI  26
6HR MIN TEMP:  27; 6HR MAX TEMP:  32;

MERRILL        CLOUDY    32  31  96 CALM      29.94S FOG
6HR MIN TEMP:  28; 6HR MAX TEMP:  32;

$$

WIZ029-030-035-036-043>047-261900-
CENTRAL WISCONSIN

CITY           SKY/WX    TMP DP  RH WIND       PRES   REMARKS
WAUSAU         CLOUDY    32  31  96 N3        29.92F FOG
6HR MIN TEMP:  26; 6HR MAX TEMP:  32;

MOSINEE        FOG       30  30 100 CALM      29.93F VSB 1/8
MARSHFIELD     FAIR      36  31  82 CALM      29.92F
6HR MIN TEMP:  25; 6HR MAX TEMP:  36;

STEVENS POINT  FAIR      36  32  84 CALM      29.93F
6HR MIN TEMP:  22; 6HR MAX TEMP:  36;

WAUPACA          N/A     37  36  96 NW5       29.95S FOG     WCI  33
6HR MIN TEMP:  28; 6HR MAX TEMP:  37;

WAUTOMA        FAIR      44  35  70 W7        29.94F
6HR MIN TEMP:  24; 6HR MAX TEMP:  44;

WISC RAPIDS    FAIR      41  32  70 SW6       29.94F
6HR MIN TEMP:  23; 6HR MAX TEMP:  42;

CAMP DOUGLAS   FAIR      43  38  83 W5        29.93S
6HR MIN TEMP:  20; 6HR MAX TEMP:  43;

$$

WIZ011>013-019>022-031-037>040-048>050-261900-
NORTHEAST WISCONSIN

CITY           SKY/WX    TMP DP  RH WIND       PRES   REMARKS
ANTIGO         CLOUDY    31  31 100 CALM      29.93S FOG
6HR MIN TEMP:  24; 6HR MAX TEMP:  31;

SHAWANO        FOG       34  32  94 CALM      29.96S VSB 1/4
6HR MIN TEMP:  27; 6HR MAX TEMP:  33;

OCONTO         CLOUDY    36  36 100 NW3       29.95F
6HR MIN TEMP:  23; 6HR MAX TEMP:  37;

STURGEON BAY   CLOUDY    39  34  81 W5        29.96F
6HR MIN TEMP:  34; 6HR MAX TEMP:  39;

GREEN BAY      FAIR      41  36  82 SW3       29.95F
6HR MIN TEMP:  30; 6HR MAX TEMP:  42;

MANITOWOC      FAIR      45  38  76 VRB3      29.95F
6HR MIN TEMP:  31; 6HR MAX TEMP:  45;

APPLETON       MOSUNNY   41  37  87 SW7       29.95F
CLINTONVILLE   FOG       32  32 100 CALM      29.95S VSB 1/4
OSHKOSH        FAIR      43  35  73 SW8       29.94F
6HR MIN TEMP:  30; 6HR MAX TEMP:  43;

$$

WIZ032>034-041-042-053>061-261900-
SOUTHWEST WISCONSIN

CITY           SKY/WX    TMP DP  RH WIND       PRES   REMARKS
LA CROSSE      FAIR      38  31  76 NW6       29.94F WCI  33
6HR MIN TEMP:  23; 6HR MAX TEMP:  38;

SPARTA         FAIR      42  32  67 W5        29.94S
6HR MIN TEMP:  21; 6HR MAX TEMP:  42;

VIROQUA        FAIR      40  34  80 W3        29.92S
6HR MIN TEMP:  31; 6HR MAX TEMP:  40;

BOSCOBEL       FAIR      45  33  63 W7        29.95S
6HR MIN TEMP:  26; 6HR MAX TEMP:  45;

PRAIRIE DU CHI FAIR      44  32  62 CALM      29.94S
6HR MIN TEMP:  30; 6HR MAX TEMP:  44;

PLATTEVILLE    FAIR      44  36  72 SW12      29.95F
6HR MIN TEMP:  35; 6HR MAX TEMP:  44;

$$

WIZ056-057-062-063-064-067-068-261900-
SOUTH CENTRAL WISCONSIN

CITY           SKY/WX    TMP DP  RH WIND       PRES   REMARKS
REEDSBURG      FAIR      43  34  69 S6        29.92F
6HR MIN TEMP:  34; 6HR MAX TEMP:  43;

BARABOO/DELLS  FAIR      44  33  65 W6        29.93F
6HR MIN TEMP:  36; 6HR MAX TEMP:  44;

LONE ROCK      FAIR      49  33  54 SW7       29.94F
6HR MIN TEMP:  34; 6HR MAX TEMP:  49;

MINERAL POINT  FAIR      43  34  70 SW9       29.93F
MADISON        PTSUNNY   43  34  70 S7        29.94F
6HR MIN TEMP:  35; 6HR MAX TEMP:  43;

MIDDLETON      FAIR      45  33  63 SW9       29.94F
6HR MIN TEMP:  36; 6HR MAX TEMP:  46;

WATERTOWN      FAIR      42  37  80 SW7       29.95F
6HR MIN TEMP:  33; 6HR MAX TEMP:  42;

MONROE         FAIR      43  36  75 SW13      29.94F
JANESVILLE     SUNNY     46  36  66 SW12      29.96
$$

WIZ051-052-058>065-066-070>072-261900-
SOUTHEAST WISCONSIN

CITY           SKY/WX    TMP DP  RH WIND       PRES   REMARKS
MILWAUKEE      PTSUNNY   47  34  60 SW15      29.98F
6HR MIN TEMP:  38; 6HR MAX TEMP:  47;

WAUKESHA       SUNNY     43  34  70 SW10G17   29.98F
MILWAUKEE/TIMM SUNNY     45  34  65 SW13      29.98F
RACINE         FAIR      48  35  60 SW12G22   29.99F
6HR MIN TEMP:  37; 6HR MAX TEMP:  48;

BURLINGTON     FAIR      45  35  69 SW9       29.97F
6HR MIN TEMP:  33; 6HR MAX TEMP:  46;

KENOSHA        FAIR      47  37  68 SW13      29.98F
6HR MIN TEMP:  37; 6HR MAX TEMP:  47;

FOND DU LAC    FAIR      44  35  70 SW7       29.95F
6HR MIN TEMP:  35; 6HR MAX TEMP:  44;

SHEBOYGAN      FAIR      46  36  68 W9        29.95F
6HR MIN TEMP:  31; 6HR MAX TEMP:  46;

WEST BEND      FAIR      43  32  65 W10       29.96S
JUNEAU         FAIR      42  36  78 S9        29.95F
6HR MIN TEMP:  32; 6HR MAX TEMP:  42;

$$

LSZ147-162-261900-
LAKE SUPERIOR

STATION/POSITION TIME  TEMP    WIND        PRES    WAVE
                       AIR SEA DIR/SP/G            HT/PER
                 (UTC) (F)     (DEG/KT/KT) (MB)    (FT/S)
DEVILS ISLAND    1800   33      20/  7/  9 1018.1R
PORT WING        1700   31      10/  8/ 10 1017.9
SAXON HARBOR     1700   32     360/ 12/ 14 1016.9S
$$

LMZ867-665-643>646-261900-
LAKE MICHIGAN

STATION/POSITION TIME  TEMP    WIND        PRES    WAVE



USA.gov is the U.S. government's official web portal to all federal, state and local government web resources and services.